Starlink 1978

operational
NORAD ID: 47576 Int'l Des: 2021-009 Owner: SPXS Country: US Constellation: starlink
LEOCIRCULAR

关于 Starlink 1978

正在加载描述...

实时位置

正在加载3D地球...

即将过境

高度历史

Altitude vs Time

uPlot chart will show altitude changes over time

两行轨道根数

1 47576U 21009AE 26035.50546329 .00819989 34847-3 12043-2 0 9996
2 47576 53.0311 70.2902 0008323 23.0244 337.1159 16.04450356277206
Epoch: Feb 4, 2026 • Age: 11 hours

当前状态

高度 276.0 km
速度 7.74 km/s
星下点 -35.15°S, 151.52°E
发射日期 Feb 4, 2021
运行时间 4.9 years
类型 internet

技术详情

分类 Payload
质量 260.00 kg
干质量 248.00 kg
总质量 260.00 kg
长度 0.20 m
直径 2.80 m
跨度 9.00 m
形状 Box + pan
制造商 SPXS
平台类型 Starlink
阶段状态 In Orbit
所有者/国家 SPXS/US

大型星座

Loading constellations...